Location: Unspecified
(47.6567°N, 0.0000°E)
Time: 02:03:04
(UTC+00:00)

ISS - Visible Passes

Search period start: 23 October 2019 00:00
Search period end: 02 November 2019 00:00
Orbit: 411 x 421 km, 51.6° (Epoch: 23 October)

Date Brightness Start Highest point End Pass type
(mag) Time Alt. Az. Time Alt. Az. Time Alt. Az.
23 Oct -0.6 05:37:12 10° SSE 05:38:40 12° SE 05:40:09 10° ESE visible
25 Oct -1.7 05:35:01 10° SSW 05:37:56 28° SE 05:40:52 10° E visible
26 Oct -1.2 04:47:08 10° S 04:49:32 18° SE 04:51:55 10° E visible
27 Oct -0.8 04:00:54 11° SE 04:01:09 11° SE 04:02:22 10° ESE visible
27 Oct -3.3 05:34:00 10° SW 05:37:20 61° SSE 05:40:40 10° ENE visible
28 Oct -2.6 04:47:42 29° S 04:48:48 40° SE 04:51:59 10° ENE visible
29 Oct -1.3 04:01:27 21° ESE 04:01:27 21° ESE 04:03:11 10° E visible
29 Oct -3.8 05:34:21 17° WSW 05:36:50 70° NNW 05:40:13 10° ENE visible
30 Oct -3.9 04:47:58 75° SW 04:48:12 85° SSE 04:51:36 10° ENE visible
31 Oct -1.3 04:01:29 23° ENE 04:01:29 23° ENE 04:02:56 10° ENE visible
31 Oct -3.2 05:34:23 20° WNW 05:36:26 46° N 05:39:43 10° ENE visible
01 Nov -3.5 04:47:50 56° N 04:47:50 56° N 04:51:03 10° ENE visible
